STARLINK-30517

operational
NORAD ID: 57995 Int'l Des: 2023-153 Owner: SPXS Country: US Constellation: starlink
LEOCIRCULAR

STARLINK-30517について

説明を読み込み中...

リアルタイム位置

3D地球を読み込み中...

次回通過

高度履歴

Altitude vs Time

uPlot chart will show altitude changes over time

軌道要素

1 57995U 23153E 25251.93279037 -.00007966 00000-0 -57484-3 0 9995
2 57995 43.0044 336.5180 0001451 287.3536 72.7148 15.02566473107537
Epoch: Sep 8, 2025 • Age: 12 hours

現在のステータス

高度 559.6 km
速度 7.59 km/s
衛星直下点 24.31°N, 16.5°W
打ち上げ日 Oct 5, 2023
運用期間 1.9 years
タイプ internet

技術仕様

分類 Payload
質量 730.00 kg
乾燥質量 700.00 kg
総質量 730.00 kg
長さ 0.30 m
直径 4.10 m
スパン 29.00 m
形状 Box + pan
製造者 SPXS
バスタイプ Starlink V2M
フェーズステータス In Orbit
所有者/国 SPXS/US

大規模コンステレーション

Loading constellations...